sat.trackr.live / text

‹ back to catalog

KUIPER-00225

NORAD 67784 · 2026-030W

PAYLOAD ACTIVE UNKNOWN

§ Identity

Operator
Country
US
Launch date
2026-02-12
Launch site
FRGUI
Launch vehicle
Mass (kg)
RCS (m²)

External: N2YO · Heavens-Above · Gunter

§ Orbital elements

Epoch: 2026-05-25T04:17:55.828032Z

Period
97.53 min
Inclination
51.8970°
Eccentricity
0.0002880
Mean motion
14.76431369 rev/d
Perigee alt
638.6 km
Apogee alt
642.6 km
Semi-major
7,018.7 km
B*
2.5322e-4
RAAN
219.6354°
Arg perigee
352.9732°
Mean anomaly
7.1188°
Rev number
1,671

§ Raw data

KUIPER-002251 67784U 26030W   26145.17911838  .00001563  00000+0  25322-3 0  99902 67784  51.8970 219.6354 0002880 352.9732   7.1188 14.76431369 16717

JSON: /api/v1/satellites/67784 · /tle

For live sub-satellite position, see the globe view (requires WebGL).

§ Visibility from observer

Set your observer location to see the next 7 days of passes ≥ 10°. The values pass through the URL so the page stays shareable.

No JS? Fill the form by hand. The geolocation button needs JavaScript.